Time,TemperatureF,DewpointF,PressureIn,WindDirection,WindDirectionDegrees,WindSpeedMPH,WindSpeedGustMPH,Humidity,HourlyPrecipIn,Conditions,Clouds,dailyrainin,SolarRadiationWatts/m^2,SoftwareType,DateUTC
2013-01-25 00:03:00,47.3,18.9,30.09,NNW,342,7.0,11.0,32,0.00,OVC,,0.00,0.0,WeatherDisplay:10.37,2013-01-25 06:03:00,
2013-01-25 00:08:00,46.9,17.8,30.08,North,356,3.3,9.2,31,0.00,OVC,,0.00,0.0,WeatherDisplay:10.37,2013-01-25 06:08:00,
2013-01-25 00:13:00,46.6,14.4,30.08,North,1,5.1,6.9,27,0.00,OVC,,0.00,0.0,WeatherDisplay:10.37,2013-01-25 06:13:00,
2013-01-25 00:18:00,46.5,7.5,30.08,North,6,3.6,9.0,20,0.00,OVC,,0.00,0.0,WeatherDisplay:10.37,2013-01-25 06:18:00,
2013-01-25 00:23:00,46.3,-2.0,30.08,North,6,3.2,5.8,13,0.00,OVC,,0.00,0.0,WeatherDisplay:10.37,2013-01-25 06:23:00,
2013-01-25 00:28:00,45.9,-31.0,30.08,North,6,4.2,4.6,3,0.00,OVC,,0.00,0.0,WeatherDisplay:10.37,2013-01-25 06:28:00,
2013-01-25 00:33:00,45.5,-31.3,30.08,North,1,3.9,5.8,3,0.00,OVC,,0.00,0.0,WeatherDisplay:10.37,2013-01-25 06:33:00,
2013-01-25 00:38:00,44.7,-31.8,30.08,North,1,5.9,6.0,3,0.00,OVC,,0.00,0.0,WeatherDisplay:10.37,2013-01-25 06:38:00,
2013-01-25 00:43:00,43.5,-32.7,30.08,North,356,5.1,9.2,3,0.00,OVC,,0.00,0.0,WeatherDisplay:10.37,2013-01-25 06:43:00,
2013-01-25 00:48:00,43.2,-32.9,30.07,North,356,3.9,5.8,3,0.00,OVC,,0.00,0.0,WeatherDisplay:10.37,2013-01-25 06:48:00,
2013-01-25 00:53:00,42.8,-33.2,30.07,North,356,5.6,6.0,3,0.00,OVC,,0.00,0.0,WeatherDisplay:10.37,2013-01-25 06:53:00,
2013-01-25 00:58:00,42.7,-33.2,30.07,North,356,4.9,8.0,3,0.00,OVC,,0.00,0.0,WeatherDisplay:10.37,2013-01-25 06:58:00,
2013-01-25 01:03:00,42.4,-33.4,30.07,North,356,2.7,3.5,3,0.00,OVC,,0.00,0.0,WeatherDisplay:10.37,2013-01-25 07:03:00,
2013-01-25 01:08:00,42.3,-33.5,30.08,North,356,4.5,8.1,3,0.00,OVC,,0.00,0.0,WeatherDisplay:10.37,2013-01-25 07:08:00,
2013-01-25 01:13:00,41.6,-34.0,30.07,North,356,2.9,6.9,3,0.00,OVC,,0.00,0.0,WeatherDisplay:10.37,2013-01-25 07:13:00,
2013-01-25 01:18:00,41.2,-34.3,30.07,North,356,0.6,4.6,3,0.00,OVC,,0.00,0.0,WeatherDisplay:10.37,2013-01-25 07:18:00,
2013-01-25 01:23:00,41.0,-34.4,30.08,North,356,4.6,9.2,3,0.00,OVC,,0.00,0.0,WeatherDisplay:10.37,2013-01-25 07:23:00,
2013-01-25 01:28:00,40.6,-34.7,30.08,North,356,3.8,9.2,3,0.00,OVC,,0.00,0.0,WeatherDisplay:10.37,2013-01-25 07:28:00,
2013-01-25 01:33:00,40.1,-35.0,30.08,North,356,5.7,9.2,3,0.00,OVC,,0.00,0.0,WeatherDisplay:10.37,2013-01-25 07:33:00,
2013-01-25 01:38:00,39.4,-35.5,30.08,North,356,5.3,9.0,3,0.00,OVC,,0.00,0.0,WeatherDisplay:10.37,2013-01-25 07:38:00,
2013-01-25 01:43:00,39.4,-35.5,30.08,North,356,4.3,5.8,3,0.00,OVC,,0.00,0.0,WeatherDisplay:10.37,2013-01-25 07:43:00,
2013-01-25 01:48:00,39.0,-35.8,30.08,North,356,5.2,8.1,3,0.00,OVC,,0.00,0.0,WeatherDisplay:10.37,2013-01-25 07:48:00,
2013-01-25 01:53:00,38.8,-35.9,30.08,North,356,5.1,6.9,3,0.00,OVC,,0.00,0.0,WeatherDisplay:10.37,2013-01-25 07:53:00,
2013-01-25 01:58:00,38.7,-36.0,30.08,North,356,4.5,5.8,3,0.00,OVC,,0.00,0.0,WeatherDisplay:10.37,2013-01-25 07:58:00,
2013-01-25 02:03:00,38.6,-36.1,30.09,North,356,5.3,9.2,3,0.00,OVC,,0.00,0.0,WeatherDisplay:10.37,2013-01-25 08:03:00,
2013-01-25 02:08:00,38.6,-36.1,30.09,North,356,4.3,4.6,3,0.00,OVC,,0.00,0.0,WeatherDisplay:10.37,2013-01-25 08:08:00,
2013-01-25 02:13:00,38.6,-36.1,30.09,NNW,348,3.1,4.6,3,0.00,OVC,,0.00,0.0,WeatherDisplay:10.37,2013-01-25 08:13:00,
2013-01-25 02:18:00,38.3,-36.3,30.09,NNW,348,2.8,5.8,3,0.00,OVC,,0.00,0.0,WeatherDisplay:10.37,2013-01-25 08:18:00,
2013-01-25 02:23:00,38.5,-36.1,30.09,North,349,1.9,5.8,3,0.00,OVC,,0.00,0.0,WeatherDisplay:10.37,2013-01-25 08:23:00,
2013-01-25 02:28:00,38.3,-36.3,30.09,North,349,4.9,6.9,3,0.00,OVC,,0.00,0.0,WeatherDisplay:10.37,2013-01-25 08:28:00,
2013-01-25 02:33:00,38.2,-36.3,30.09,North,349,3.6,6.0,3,0.00,OVC,,0.00,0.0,WeatherDisplay:10.37,2013-01-25 08:33:00,
2013-01-25 02:38:00,38.4,-36.2,30.09,North,349,3.4,5.8,3,0.00,OVC,,0.00,0.0,WeatherDisplay:10.37,2013-01-25 08:38:00,
2013-01-25 02:43:00,38.3,-36.3,30.09,North,349,3.3,6.9,3,0.00,OVC,,0.00,0.0,WeatherDisplay:10.37,2013-01-25 08:43:00,
2013-01-25 02:48:00,38.3,-36.3,30.09,North,349,2.1,5.0,3,0.00,OVC,,0.00,0.0,WeatherDisplay:10.37,2013-01-25 08:48:00,
2013-01-25 02:53:00,38.2,-36.3,30.09,North,349,4.3,10.0,3,0.00,OVC,,0.00,0.0,WeatherDisplay:10.37,2013-01-25 08:53:00,
2013-01-25 02:58:00,38.2,-36.3,30.09,North,351,3.3,5.8,3,0.00,OVC,,0.00,0.0,WeatherDisplay:10.37,2013-01-25 08:58:00,
2013-01-25 03:03:00,38.1,-36.4,30.09,North,351,5.4,6.9,3,0.00,OVC,,0.00,0.0,WeatherDisplay:10.37,2013-01-25 09:03:00,
2013-01-25 03:08:00,37.6,-36.7,30.09,North,352,4.0,6.9,3,0.00,OVC,,0.00,0.0,WeatherDisplay:10.37,2013-01-25 09:08:00,
2013-01-25 03:13:00,37.5,-36.8,30.09,North,352,5.3,8.0,3,0.00,OVC,,0.00,0.0,WeatherDisplay:10.37,2013-01-25 09:13:00,
2013-01-25 03:18:00,37.4,-36.9,30.09,NNE,23,5.6,9.2,3,0.00,OVC,,0.00,0.0,WeatherDisplay:10.37,2013-01-25 09:18:00,
2013-01-25 03:23:00,37.4,-36.9,30.09,North,10,4.8,7.0,3,0.00,OVC,,0.00,0.0,WeatherDisplay:10.37,2013-01-25 09:23:00,
2013-01-25 03:28:00,37.4,-36.9,30.09,North,1,5.5,10.0,3,0.00,OVC,,0.00,0.0,WeatherDisplay:10.37,2013-01-25 09:28:00,
2013-01-25 03:33:00,37.1,-37.1,30.09,North,356,4.9,9.2,3,0.00,OVC,,0.00,0.0,WeatherDisplay:10.37,2013-01-25 09:33:00,
2013-01-25 03:38:00,37.0,-37.2,30.09,NNW,336,4.9,8.1,3,0.00,OVC,,0.00,0.0,WeatherDisplay:10.37,2013-01-25 09:38:00,
2013-01-25 03:43:00,36.8,-37.3,30.09,North,6,2.4,5.8,3,0.00,OVC,,0.00,0.0,WeatherDisplay:10.37,2013-01-25 09:43:00,
2013-01-25 03:48:00,36.5,-37.5,30.09,NNW,346,6.6,9.2,3,0.00,OVC,,0.00,0.0,WeatherDisplay:10.37,2013-01-25 09:48:00,
2013-01-25 03:53:00,36.5,-37.5,30.09,North,349,6.3,11.5,3,0.00,OVC,,0.00,0.0,WeatherDisplay:10.37,2013-01-25 09:53:00,
2013-01-25 03:58:00,36.4,-37.6,30.09,North,6,6.0,10.4,3,0.00,OVC,,0.00,0.0,WeatherDisplay:10.37,2013-01-25 09:58:00,
2013-01-25 04:03:00,36.2,-37.7,30.09,North,1,4.6,8.1,3,0.00,OVC,,0.00,0.0,WeatherDisplay:10.37,2013-01-25 10:03:00,
2013-01-25 04:08:00,36.3,-37.6,30.09,NNE,22,6.4,9.2,3,0.00,OVC,,0.00,0.0,WeatherDisplay:10.37,2013-01-25 10:08:00,
2013-01-25 04:13:00,36.3,-37.6,30.10,North,1,5.4,12.7,3,0.00,OVC,,0.00,0.0,WeatherDisplay:10.37,2013-01-25 10:13:00,
2013-01-25 04:18:00,36.4,-37.6,30.10,NNE,18,5.6,6.9,3,0.00,OVC,,0.00,0.0,WeatherDisplay:10.37,2013-01-25 10:18:00,
2013-01-25 04:23:00,36.3,-37.6,30.10,North,10,3.8,8.1,3,0.00,OVC,,0.00,0.0,WeatherDisplay:10.37,2013-01-25 10:23:00,
2013-01-25 04:28:00,36.2,-37.7,30.11,North,1,5.2,11.5,3,0.00,OVC,,0.00,0.0,WeatherDisplay:10.37,2013-01-25 10:28:00,
2013-01-25 04:33:00,36.2,-37.7,30.11,North,6,5.2,6.0,3,0.00,OVC,,0.00,0.0,WeatherDisplay:10.37,2013-01-25 10:33:00,
2013-01-25 04:38:00,36.1,-37.8,30.11,North,1,5.3,9.0,3,0.00,OVC,,0.00,0.0,WeatherDisplay:10.37,2013-01-25 10:38:00,
2013-01-25 04:43:00,36.0,-37.9,30.11,North,6,6.3,10.4,3,0.00,OVC,,0.00,0.0,WeatherDisplay:10.37,2013-01-25 10:43:00,
2013-01-25 04:48:00,36.0,-37.9,30.11,NNE,23,8.6,11.5,3,0.00,OVC,,0.00,0.0,WeatherDisplay:10.37,2013-01-25 10:48:00,
2013-01-25 04:53:00,35.8,-38.0,30.11,NNE,23,6.8,11.5,3,0.00,OVC,,0.00,0.0,WeatherDisplay:10.37,2013-01-25 10:53:00,
2013-01-25 04:58:00,35.7,-38.1,30.11,NNE,29,8.1,11.5,3,0.00,OVC,,0.00,0.0,WeatherDisplay:10.37,2013-01-25 10:58:00,
2013-01-25 05:03:00,35.7,-38.1,30.11,NNE,23,4.5,9.2,3,0.00,OVC,,0.00,0.0,WeatherDisplay:10.37,2013-01-25 11:03:00,
2013-01-25 05:08:00,35.7,-38.1,30.12,NNE,14,6.2,11.5,3,0.00,OVC,,0.00,0.0,WeatherDisplay:10.37,2013-01-25 11:08:00,
2013-01-25 05:13:00,35.7,-38.1,30.12,NNE,20,6.9,17.3,3,0.00,OVC,,0.00,0.0,WeatherDisplay:10.37,2013-01-25 11:13:00,
2013-01-25 05:18:00,35.7,-38.1,30.12,NNE,33,6.9,10.4,3,0.00,OVC,,0.00,0.0,WeatherDisplay:10.37,2013-01-25 11:18:00,
2013-01-25 05:23:00,35.7,-38.1,30.12,NNE,21,6.2,10.4,3,0.00,OVC,,0.00,0.0,WeatherDisplay:10.37,2013-01-25 11:23:00,
2013-01-25 05:28:00,35.7,-38.1,30.12,NNE,18,6.6,13.8,3,0.00,OVC,,0.00,0.0,WeatherDisplay:10.37,2013-01-25 11:28:00,
2013-01-25 05:33:00,35.6,-38.1,30.12,NE,36,9.5,11.5,3,0.00,OVC,,0.00,0.0,WeatherDisplay:10.37,2013-01-25 11:33:00,
2013-01-25 05:38:00,35.4,-38.3,30.12,NNE,33,6.3,10.4,3,0.00,OVC,,0.00,0.0,WeatherDisplay:10.37,2013-01-25 11:38:00,
2013-01-25 05:43:00,35.4,-38.3,30.12,NNE,23,5.3,8.1,3,0.00,OVC,,0.00,0.0,WeatherDisplay:10.37,2013-01-25 11:43:00,
2013-01-25 05:48:00,35.3,-38.3,30.13,NNE,22,6.6,11.5,3,0.00,OVC,,0.00,0.0,WeatherDisplay:10.37,2013-01-25 11:48:00,
2013-01-25 05:53:00,35.3,33.7,30.13,NNE,27,6.5,10.0,94,0.00,OVC,,0.00,0.0,WeatherDisplay:10.37,2013-01-25 11:53:00,
2013-01-25 05:58:00,35.3,33.7,30.12,NNE,31,4.0,6.9,94,0.00,OVC,,0.00,0.0,WeatherDisplay:10.37,2013-01-25 11:58:00,
2013-01-25 06:03:00,35.3,33.7,30.12,NNE,31,1.8,3.5,94,0.00,OVC,,0.00,0.0,WeatherDisplay:10.37,2013-01-25 12:03:00,
2013-01-25 06:08:00,35.3,33.7,30.12,NNE,25,5.6,6.0,94,0.00,OVC,,0.00,0.0,WeatherDisplay:10.37,2013-01-25 12:08:00,
2013-01-25 06:13:00,35.3,33.7,30.12,NNE,23,3.9,6.9,94,0.00,OVC,,0.00,0.0,WeatherDisplay:10.37,2013-01-25 12:13:00,
2013-01-25 06:18:00,35.4,33.8,30.12,NNE,28,4.7,8.1,94,0.00,OVC,,0.00,0.0,WeatherDisplay:10.37,2013-01-25 12:18:00,
2013-01-25 06:23:00,35.4,33.8,30.13,NNE,21,6.1,9.2,94,0.00,OVC,,0.00,0.0,WeatherDisplay:10.37,2013-01-25 12:23:00,
2013-01-25 06:28:00,35.5,33.9,30.14,North,11,5.8,10.4,94,0.00,OVC,,0.00,0.0,WeatherDisplay:10.37,2013-01-25 12:28:00,
2013-01-25 06:33:00,35.6,34.0,30.14,NNE,27,5.0,10.4,94,0.00,OVC,,0.00,0.0,WeatherDisplay:10.37,2013-01-25 12:33:00,
2013-01-25 06:38:00,35.6,34.0,30.15,NNE,19,5.8,10.4,94,0.00,OVC,,0.00,0.0,WeatherDisplay:10.37,2013-01-25 12:38:00,
2013-01-25 06:43:00,35.7,34.1,30.15,NNE,20,5.0,10.4,94,0.00,OVC,,0.00,0.0,WeatherDisplay:10.37,2013-01-25 12:43:00,
2013-01-25 06:48:00,35.6,34.0,30.15,NNE,21,6.3,8.1,94,0.00,OVC,,0.00,0.0,WeatherDisplay:10.37,2013-01-25 12:48:00,
2013-01-25 06:53:00,35.8,34.2,30.15,NNE,28,5.1,10.4,94,0.00,OVC,,0.00,0.0,WeatherDisplay:10.37,2013-01-25 12:53:00,
2013-01-25 06:58:00,35.7,34.1,30.15,NNE,23,6.3,9.0,94,0.00,OVC,,0.00,0.0,WeatherDisplay:10.37,2013-01-25 12:58:00,
2013-01-25 07:03:00,35.6,34.0,30.15,NE,41,7.1,16.1,94,0.00,OVC,,0.00,0.0,WeatherDisplay:10.37,2013-01-25 13:03:00,
2013-01-25 07:08:00,35.7,35.7,30.16,North,6,5.5,9.2,100,0.00,OVC,,0.00,0.0,WeatherDisplay:10.37,2013-01-25 13:08:00,
2013-01-25 07:13:00,35.9,35.9,30.16,NNE,27,5.4,9.2,100,0.00,OVC,,0.00,0.0,WeatherDisplay:10.37,2013-01-25 13:13:00,
2013-01-25 07:18:00,36.1,36.1,30.16,North,11,5.5,11.5,100,0.00,OVC,,0.00,0.0,WeatherDisplay:10.37,2013-01-25 13:18:00,
2013-01-25 07:23:00,36.2,36.2,30.16,NNE,20,5.3,8.1,100,0.00,OVC,,0.00,0.0,WeatherDisplay:10.37,2013-01-25 13:23:00,
2013-01-25 07:28:00,36.2,36.2,30.16,NNE,20,3.4,6.9,100,0.00,OVC,,0.00,0.0,WeatherDisplay:10.37,2013-01-25 13:28:00,
2013-01-25 07:33:00,36.1,36.1,30.16,NNE,20,3.6,4.6,100,0.00,OVC,,0.00,0.0,WeatherDisplay:10.37,2013-01-25 13:33:00,
2013-01-25 07:38:00,36.1,36.1,30.17,NNE,20,5.8,6.9,100,0.00,OVC,,0.00,0.0,WeatherDisplay:10.37,2013-01-25 13:38:00,
2013-01-25 07:43:00,36.1,36.1,30.17,NNE,27,7.2,10.4,100,0.00,OVC,,0.00,5.5,WeatherDisplay:10.37,2013-01-25 13:43:00,
2013-01-25 07:48:00,36.0,36.0,30.18,NNE,24,7.1,11.5,100,0.00,OVC,,0.00,7.7,WeatherDisplay:10.37,2013-01-25 13:48:00,
2013-01-25 07:53:00,36.0,36.0,30.17,NNE,26,5.5,11.5,100,0.00,OVC,,0.00,9.9,WeatherDisplay:10.37,2013-01-25 13:53:00,
2013-01-25 07:58:00,36.2,36.2,30.18,NNE,14,3.6,4.6,100,0.00,OVC,,0.00,12.1,WeatherDisplay:10.37,2013-01-25 13:58:00,
2013-01-25 08:03:00,36.3,36.3,30.19,North,1,3.9,5.8,100,0.00,OVC,,0.00,9.9,WeatherDisplay:10.37,2013-01-25 14:03:00,
2013-01-25 08:08:00,36.0,36.0,30.19,NNE,26,6.5,10.4,100,0.00,OVC,,0.00,12.1,WeatherDisplay:10.37,2013-01-25 14:08:00,
2013-01-25 08:13:00,35.8,35.8,30.19,NNE,27,5.2,9.2,100,0.00,OVC,,0.00,19.8,WeatherDisplay:10.37,2013-01-25 14:13:00,
2013-01-25 08:18:00,35.9,35.9,30.19,NNE,29,7.1,10.4,100,0.00,OVC,,0.00,23.1,WeatherDisplay:10.37,2013-01-25 14:18:00,
2013-01-25 08:23:00,36.0,36.0,30.19,NNE,31,7.8,12.7,100,0.00,OVC,,0.00,33.0,WeatherDisplay:10.37,2013-01-25 14:23:00,
2013-01-25 08:28:00,36.3,36.3,30.20,NNE,28,7.1,11.5,100,0.00,OVC,,0.00,46.2,WeatherDisplay:10.37,2013-01-25 14:28:00,
2013-01-25 08:33:00,36.5,36.5,30.20,NNE,26,8.5,11.0,100,0.00,OVC,,0.00,50.6,WeatherDisplay:10.37,2013-01-25 14:33:00,
2013-01-25 08:38:00,36.6,36.6,30.20,North,6,4.7,10.4,100,0.00,OVC,,0.00,50.6,WeatherDisplay:10.37,2013-01-25 14:38:00,
2013-01-25 08:43:00,36.5,36.5,30.21,North,6,6.0,10.4,100,0.00,OVC,,0.00,44.0,WeatherDisplay:10.37,2013-01-25 14:43:00,
2013-01-25 08:48:00,36.3,36.3,30.21,North,356,6.4,6.4,100,0.00,OVC,,0.00,58.3,WeatherDisplay:10.37,2013-01-25 14:48:00,
2013-01-25 08:53:00,36.3,36.3,30.21,North,356,7.0,11.5,100,0.00,OVC,,0.00,61.6,WeatherDisplay:10.37,2013-01-25 14:53:00,
2013-01-25 08:58:00,36.4,36.4,30.21,North,1,4.3,9.2,100,0.00,OVC,,0.00,73.7,WeatherDisplay:10.37,2013-01-25 14:58:00,
2013-01-25 09:03:00,36.7,36.7,30.21,North,356,4.5,8.1,100,0.00,OVC,,0.00,104.5,WeatherDisplay:10.37,2013-01-25 15:03:00,
2013-01-25 09:08:00,36.7,36.7,30.21,North,356,4.4,9.2,100,0.00,OVC,,0.00,107.8,WeatherDisplay:10.37,2013-01-25 15:08:00,
2013-01-25 09:13:00,37.1,37.1,30.21,NNE,21,4.5,9.2,100,0.00,OVC,,0.00,125.4,WeatherDisplay:10.37,2013-01-25 15:13:00,
2013-01-25 09:18:00,36.5,36.5,30.22,NNE,21,3.4,5.8,100,0.00,OVC,,0.00,104.5,WeatherDisplay:10.37,2013-01-25 15:18:00,
2013-01-25 09:23:00,36.7,36.7,30.22,North,356,1.8,3.5,100,0.00,OVC,,0.00,124.3,WeatherDisplay:10.37,2013-01-25 15:23:00,
2013-01-25 09:28:00,36.8,36.8,30.21,North,6,5.3,9.2,100,0.00,OVC,,0.00,204.6,WeatherDisplay:10.37,2013-01-25 15:28:00,
2013-01-25 09:33:00,37.4,37.4,30.21,North,6,6.5,7.0,100,0.00,OVC,,0.00,226.6,WeatherDisplay:10.37,2013-01-25 15:33:00,
2013-01-25 09:38:00,37.7,37.7,30.22,NNE,33,6.4,10.4,100,0.00,OVC,,0.00,286.0,WeatherDisplay:10.37,2013-01-25 15:38:00,
2013-01-25 09:43:00,37.9,37.9,30.22,NNE,33,2.9,5.8,100,0.00,OVC,,0.00,323.4,WeatherDisplay:10.37,2013-01-25 15:43:00,
2013-01-25 09:48:00,38.4,38.4,30.22,NNE,22,5.2,10.4,100,0.00,SCT,,0.00,382.8,WeatherDisplay:10.37,2013-01-25 15:48:00,
2013-01-25 09:53:00,38.8,38.8,30.22,NE,41,5.8,10.4,100,0.00,SCT,,0.00,375.1,WeatherDisplay:10.37,2013-01-25 15:53:00,
2013-01-25 09:58:00,38.7,38.7,30.22,NNE,17,7.2,11.5,100,0.00,SCT,,0.00,377.3,WeatherDisplay:10.37,2013-01-25 15:58:00,
2013-01-25 10:03:00,38.7,38.7,30.23,NNE,30,6.5,9.2,100,0.00,CLR,,0.00,387.2,WeatherDisplay:10.37,2013-01-25 16:03:00,
2013-01-25 10:08:00,38.4,38.4,30.23,North,6,8.2,9.2,100,0.00,CLR,,0.00,392.7,WeatherDisplay:10.37,2013-01-25 16:08:00,
2013-01-25 10:13:00,38.4,38.4,30.23,North,356,5.4,10.4,100,0.00,CLR,,0.00,403.7,WeatherDisplay:10.37,2013-01-25 16:13:00,
2013-01-25 10:18:00,38.8,38.8,30.23,NNE,26,6.4,9.2,100,0.00,CLR,,0.00,411.4,WeatherDisplay:10.37,2013-01-25 16:18:00,
2013-01-25 10:23:00,39.4,39.4,30.23,ENE,62,5.8,10.0,100,0.00,CLR,,0.00,454.3,WeatherDisplay:10.37,2013-01-25 16:23:00,
2013-01-25 10:28:00,39.6,39.6,30.23,NNE,15,4.8,9.2,100,0.00,CLR,,0.00,459.8,WeatherDisplay:10.37,2013-01-25 16:28:00,
2013-01-25 10:33:00,39.2,39.2,30.23,NNE,20,4.2,8.1,100,0.00,CLR,,0.00,413.6,WeatherDisplay:10.37,2013-01-25 16:33:00,
2013-01-25 10:38:00,40.3,40.3,30.23,NE,38,3.4,8.1,100,0.00,CLR,,0.00,482.9,WeatherDisplay:10.37,2013-01-25 16:38:00,
2013-01-25 10:43:00,40.3,40.3,30.23,NNE,17,5.5,7.0,100,0.00,CLR,,0.00,500.5,WeatherDisplay:10.37,2013-01-25 16:43:00,
2013-01-25 10:48:00,39.7,39.7,30.22,NNE,27,6.4,11.5,100,0.00,CLR,,0.00,531.3,WeatherDisplay:10.37,2013-01-25 16:48:00,
2013-01-25 10:53:00,40.9,40.9,30.21,NNE,16,5.9,9.0,100,0.00,CLR,,0.00,539.0,WeatherDisplay:10.37,2013-01-25 16:53:00,
2013-01-25 10:58:00,40.6,40.6,30.22,NNE,13,4.3,8.1,100,0.00,CLR,,0.00,546.7,WeatherDisplay:10.37,2013-01-25 16:58:00,
2013-01-25 11:03:00,41.1,41.1,30.22,NE,38,5.9,11.5,100,0.00,CLR,,0.00,554.4,WeatherDisplay:10.37,2013-01-25 17:03:00,
2013-01-25 11:08:00,41.4,41.4,30.22,NE,45,3.5,11.5,100,0.00,CLR,,0.00,570.9,WeatherDisplay:10.37,2013-01-25 17:08:00,
2013-01-25 11:13:00,41.5,41.5,30.22,NE,47,5.1,11.5,100,0.00,CLR,,0.00,581.9,WeatherDisplay:10.37,2013-01-25 17:13:00,
2013-01-25 11:18:00,42.6,42.6,30.22,NNE,19,3.3,6.9,100,0.00,CLR,,0.00,581.9,WeatherDisplay:10.37,2013-01-25 17:18:00,
2013-01-25 11:23:00,42.2,42.2,30.22,NE,53,4.7,8.1,100,0.00,CLR,,0.00,545.6,WeatherDisplay:10.37,2013-01-25 17:23:00,
2013-01-25 11:28:00,41.7,41.7,30.22,NE,39,5.0,9.2,100,0.00,CLR,,0.00,647.9,WeatherDisplay:10.37,2013-01-25 17:28:00,
2013-01-25 11:33:00,42.2,42.2,30.21,ENE,58,7.0,10.0,100,0.00,CLR,,0.00,602.8,WeatherDisplay:10.37,2013-01-25 17:33:00,
2013-01-25 11:38:00,43.0,43.0,30.21,NE,36,4.0,5.8,100,0.00,CLR,,0.00,686.4,WeatherDisplay:10.37,2013-01-25 17:38:00,
2013-01-25 11:43:00,42.1,42.1,30.21,NE,38,6.5,16.1,100,0.00,CLR,,0.00,443.3,WeatherDisplay:10.37,2013-01-25 17:43:00,
2013-01-25 11:48:00,43.6,43.6,30.21,NNE,31,7.1,7.1,100,0.00,CLR,,0.00,602.8,WeatherDisplay:10.37,2013-01-25 17:48:00,
2013-01-25 11:53:00,43.0,43.0,30.21,NNE,33,6.4,11.5,100,0.00,CLR,,0.00,456.5,WeatherDisplay:10.37,2013-01-25 17:53:00,
2013-01-25 11:58:00,42.8,42.3,30.20,NE,35,2.3,5.8,98,0.00,CLR,,0.00,392.7,WeatherDisplay:10.37,2013-01-25 17:58:00,
2013-01-25 12:03:00,43.0,33.9,30.20,NNE,33,3.2,3.5,70,0.00,CLR,,0.00,380.6,WeatherDisplay:10.37,2013-01-25 18:03:00,
2013-01-25 12:08:00,43.2,34.4,30.20,NE,34,4.2,6.0,71,0.00,CLR,,0.00,390.5,WeatherDisplay:10.37,2013-01-25 18:08:00,
2013-01-25 12:13:00,43.2,34.1,30.20,NNE,22,6.3,8.1,70,0.00,CLR,,0.00,382.8,WeatherDisplay:10.37,2013-01-25 18:13:00,
2013-01-25 12:18:00,44.1,33.8,30.20,NE,45,7.5,10.4,67,0.00,CLR,,0.00,744.7,WeatherDisplay:10.37,2013-01-25 18:18:00,
2013-01-25 12:23:00,45.3,35.4,30.20,NE,40,3.7,5.0,68,0.00,CLR,,0.00,605.0,WeatherDisplay:10.37,2013-01-25 18:23:00,
2013-01-25 12:28:00,44.3,34.4,30.20,NE,55,6.0,7.0,68,0.00,CLR,,0.00,385.0,WeatherDisplay:10.37,2013-01-25 18:28:00,
2013-01-25 12:33:00,43.3,33.8,30.20,NE,44,4.0,4.0,69,0.00,CLR,,0.00,429.0,WeatherDisplay:10.37,2013-01-25 18:33:00,
2013-01-25 12:38:00,44.7,35.1,30.20,NE,44,4.0,6.9,69,0.00,CLR,,0.00,388.3,WeatherDisplay:10.37,2013-01-25 18:38:00,
2013-01-25 12:43:00,45.4,35.8,30.19,NE,36,7.9,8.1,69,0.00,CLR,,0.00,790.9,WeatherDisplay:10.37,2013-01-25 18:43:00,
2013-01-25 12:48:00,45.0,35.4,30.18,NNE,27,6.4,10.4,69,0.00,CLR,,0.00,477.4,WeatherDisplay:10.37,2013-01-25 18:48:00,
2013-01-25 12:53:00,45.9,35.2,30.18,NE,36,2.9,4.6,66,0.00,CLR,,0.00,474.1,WeatherDisplay:10.37,2013-01-25 18:53:00,
2013-01-25 12:58:00,45.7,35.4,30.18,NE,56,2.4,6.0,67,0.00,CLR,,0.00,474.1,WeatherDisplay:10.37,2013-01-25 18:58:00,
2013-01-25 13:03:00,45.3,35.4,30.18,NE,56,3.1,4.6,68,0.00,CLR,,0.00,630.3,WeatherDisplay:10.37,2013-01-25 19:03:00,
2013-01-25 13:08:00,45.6,34.9,30.18,NE,56,0.1,3.5,66,0.00,CLR,,0.00,630.3,WeatherDisplay:10.37,2013-01-25 19:08:00,
2013-01-25 13:13:00,46.0,35.7,30.18,NE,45,4.0,6.0,67,0.00,CLR,,0.00,387.2,WeatherDisplay:10.37,2013-01-25 19:13:00,
2013-01-25 13:18:00,45.1,35.2,30.18,NE,45,0.0,3.5,68,0.00,CLR,,0.00,365.2,WeatherDisplay:10.37,2013-01-25 19:18:00,
2013-01-25 13:23:00,46.0,35.7,30.18,NNE,18,2.7,5.8,67,0.00,CLR,,0.00,355.3,WeatherDisplay:10.37,2013-01-25 19:23:00,
2013-01-25 13:28:00,46.8,36.0,30.18,NNE,19,4.1,6.0,66,0.00,CLR,,0.00,523.6,WeatherDisplay:10.37,2013-01-25 19:28:00,
2013-01-25 13:33:00,46.7,35.9,30.17,NNE,25,4.1,4.6,66,0.00,CLR,,0.00,359.7,WeatherDisplay:10.37,2013-01-25 19:33:00,
2013-01-25 13:38:00,47.1,35.9,30.18,NE,47,7.2,11.5,65,0.00,CLR,,0.00,462.0,WeatherDisplay:10.37,2013-01-25 19:38:00,
2013-01-25 13:43:00,47.3,36.5,30.18,NE,47,1.3,4.6,66,0.00,CLR,,0.00,638.0,WeatherDisplay:10.37,2013-01-25 19:43:00,
2013-01-25 14:09:00,48.7,36.7,30.17,NE,44,8.5,11.0,63,0.00,CLR,,0.00,413.6,WeatherDisplay:10.37,2013-01-25 20:09:00,
2013-01-25 14:14:00,48.9,36.9,30.17,NE,41,3.5,6.9,63,0.00,CLR,,0.00,607.2,WeatherDisplay:10.37,2013-01-25 20:14:00,
2013-01-25 14:19:00,49.1,36.6,30.17,NE,53,4.2,6.9,62,0.00,CLR,,0.00,564.3,WeatherDisplay:10.37,2013-01-25 20:19:00,
2013-01-25 14:24:00,50.1,36.7,30.17,NE,53,1.9,3.0,60,0.00,CLR,,0.00,454.3,WeatherDisplay:10.37,2013-01-25 20:24:00,
2013-01-25 14:29:00,51.4,38.0,30.17,NE,56,1.7,4.6,60,0.00,CLR,,0.00,209.0,WeatherDisplay:10.37,2013-01-25 20:29:00,
2013-01-25 14:34:00,50.0,36.7,30.17,NE,47,6.0,8.0,60,0.00,CLR,,0.00,535.7,WeatherDisplay:10.37,2013-01-25 20:34:00,
2013-01-25 14:39:00,50.9,37.5,30.17,NNE,32,4.6,4.6,60,0.00,CLR,,0.00,523.6,WeatherDisplay:10.37,2013-01-25 20:39:00,
2013-01-25 14:44:00,50.9,37.5,30.17,NNE,24,3.4,8.1,60,0.00,CLR,,0.00,518.1,WeatherDisplay:10.37,2013-01-25 20:44:00,
2013-01-25 14:49:00,50.6,36.8,30.17,ENE,66,5.1,10.4,59,0.00,CLR,,0.00,507.1,WeatherDisplay:10.37,2013-01-25 20:49:00,
2013-01-25 14:54:00,51.6,37.7,30.17,NE,51,5.4,7.0,59,0.00,CLR,,0.00,185.9,WeatherDisplay:10.37,2013-01-25 20:54:00,
2013-01-25 14:59:00,50.4,36.6,30.17,NNE,33,7.4,11.5,59,0.00,CLR,,0.00,347.6,WeatherDisplay:10.37,2013-01-25 20:59:00,
2013-01-25 15:04:00,50.9,37.1,30.17,NNE,33,0.0,4.6,59,0.00,CLR,,0.00,257.4,WeatherDisplay:10.37,2013-01-25 21:04:00,
2013-01-25 15:09:00,51.3,37.4,30.17,NE,35,4.1,7.0,59,0.00,CLR,,0.00,438.9,WeatherDisplay:10.37,2013-01-25 21:09:00,
2013-01-25 15:14:00,51.3,37.0,30.17,NNE,32,4.3,6.9,58,0.00,CLR,,0.00,122.1,WeatherDisplay:10.37,2013-01-25 21:14:00,
2013-01-25 15:19:00,52.5,37.7,30.16,NNE,30,0.0,4.6,57,0.00,CLR,,0.00,92.4,WeatherDisplay:10.37,2013-01-25 21:19:00,
2013-01-25 15:24:00,51.9,37.6,30.16,NE,41,6.4,7.0,58,0.00,CLR,,0.00,91.3,WeatherDisplay:10.37,2013-01-25 21:24:00,
2013-01-25 15:29:00,51.8,37.5,30.16,NE,44,4.1,8.1,58,0.00,CLR,,0.00,92.4,WeatherDisplay:10.37,2013-01-25 21:29:00,
2013-01-25 15:58:00,51.1,37.3,30.17,NNE,31,5.8,9.2,59,0.00,CLR,,0.00,110.0,WeatherDisplay:10.37,2013-01-25 21:58:00,
2013-01-25 16:03:00,51.9,38.0,30.17,NNE,31,2.4,5.0,59,0.00,CLR,,0.00,124.3,WeatherDisplay:10.37,2013-01-25 22:03:00,
2013-01-25 16:08:00,52.0,38.1,30.17,NE,34,4.4,9.2,59,0.00,CLR,,0.00,162.8,WeatherDisplay:10.37,2013-01-25 22:08:00,
2013-01-25 16:13:00,52.0,37.7,30.17,NE,35,2.8,5.8,58,0.00,CLR,,0.00,156.2,WeatherDisplay:10.37,2013-01-25 22:13:00,
2013-01-25 16:18:00,51.8,37.9,30.17,NNE,26,3.8,9.2,59,0.00,CLR,,0.00,119.9,WeatherDisplay:10.37,2013-01-25 22:18:00,
2013-01-25 16:23:00,51.4,37.5,30.16,NE,46,6.9,10.4,59,0.00,CLR,,0.00,122.1,WeatherDisplay:10.37,2013-01-25 22:23:00,
2013-01-25 16:28:00,51.0,37.6,30.16,NE,36,6.8,8.1,60,0.00,CLR,,0.00,107.8,WeatherDisplay:10.37,2013-01-25 22:28:00,
2013-01-25 16:33:00,50.9,37.5,30.17,NNE,33,7.2,10.4,60,0.00,CLR,,0.00,115.5,WeatherDisplay:10.37,2013-01-25 22:33:00,
2013-01-25 16:38:00,51.3,37.9,30.16,NE,45,7.7,8.0,60,0.00,CLR,,0.00,122.1,WeatherDisplay:10.37,2013-01-25 22:38:00,
2013-01-25 16:43:00,50.9,37.9,30.17,NE,35,6.0,8.0,61,0.00,CLR,,0.00,96.8,WeatherDisplay:10.37,2013-01-25 22:43:00,
2013-01-25 16:48:00,50.3,36.9,30.16,NE,47,6.1,11.5,60,0.00,CLR,,0.00,86.9,WeatherDisplay:10.37,2013-01-25 22:48:00,
2013-01-25 16:53:00,50.2,37.3,30.17,North,10,4.9,8.1,61,0.00,CLR,,0.00,75.9,WeatherDisplay:10.37,2013-01-25 22:53:00,
2013-01-25 16:58:00,50.0,37.5,30.17,NNE,33,5.8,11.5,62,0.00,CLR,,0.00,71.5,WeatherDisplay:10.37,2013-01-25 22:58:00,
2013-01-25 17:03:00,49.7,36.8,30.17,NNE,25,6.3,10.4,61,0.00,CLR,,0.00,59.4,WeatherDisplay:10.37,2013-01-25 23:03:00,
2013-01-25 17:08:00,49.5,37.0,30.17,NNE,27,3.7,4.6,62,0.00,CLR,,0.00,50.6,WeatherDisplay:10.37,2013-01-25 23:08:00,
2013-01-25 17:13:00,49.3,36.8,30.17,NNE,29,7.0,10.4,62,0.00,CLR,,0.00,46.2,WeatherDisplay:10.37,2013-01-25 23:13:00,
2013-01-25 17:18:00,48.9,36.9,30.17,NNE,30,5.1,8.1,63,0.00,CLR,,0.00,38.5,WeatherDisplay:10.37,2013-01-25 23:18:00,
2013-01-25 17:23:00,48.6,37.0,30.17,NNE,29,4.5,5.8,64,0.00,CLR,,0.00,33.0,WeatherDisplay:10.37,2013-01-25 23:23:00,
2013-01-25 17:28:00,48.2,37.0,30.17,NE,34,4.0,6.0,65,0.00,CLR,,0.00,28.6,WeatherDisplay:10.37,2013-01-25 23:28:00,
2013-01-25 17:33:00,48.1,36.9,30.17,NNE,28,5.1,6.9,65,0.00,CLR,,0.00,28.6,WeatherDisplay:10.37,2013-01-25 23:33:00,
2013-01-25 17:38:00,47.9,36.7,30.17,NNE,31,5.2,9.2,65,0.00,CLR,,0.00,23.1,WeatherDisplay:10.37,2013-01-25 23:38:00,
2013-01-25 17:43:00,47.5,36.7,30.17,NNE,30,3.2,6.9,66,0.00,CLR,,0.00,13.2,WeatherDisplay:10.37,2013-01-25 23:43:00,
2013-01-25 17:48:00,47.2,36.8,30.17,NNE,29,4.1,8.1,67,0.00,CLR,,0.00,5.5,WeatherDisplay:10.37,2013-01-25 23:48:00,
2013-01-25 17:53:00,47.0,36.6,30.17,NNE,29,5.4,6.0,67,0.00,CLR,,0.00,0.0,WeatherDisplay:10.37,2013-01-25 23:53:00,
2013-01-25 17:58:00,47.0,36.6,30.17,NNE,29,3.6,4.6,67,0.00,CLR,,0.00,0.0,WeatherDisplay:10.37,2013-01-25 23:58:00,
2013-01-25 18:03:00,46.7,36.7,30.18,NNE,29,2.8,3.5,68,0.00,CLR,,0.00,0.0,WeatherDisplay:10.37,2013-01-26 00:03:00,
2013-01-25 18:08:00,46.7,36.7,30.18,NNE,29,3.9,4.6,68,0.00,CLR,,0.00,0.0,WeatherDisplay:10.37,2013-01-26 00:08:00,
2013-01-25 18:13:00,46.4,36.4,30.18,NNE,28,3.0,5.8,68,0.00,CLR,,0.00,0.0,WeatherDisplay:10.37,2013-01-26 00:13:00,
2013-01-25 18:18:00,46.4,36.8,30.18,NNE,27,2.9,3.5,69,0.00,CLR,,0.00,0.0,WeatherDisplay:10.37,2013-01-26 00:18:00,
2013-01-25 18:23:00,46.1,36.5,30.19,NNE,27,3.1,5.8,69,0.00,CLR,,0.00,0.0,WeatherDisplay:10.37,2013-01-26 00:23:00,
2013-01-25 18:28:00,46.2,36.6,30.18,NNE,27,3.1,4.0,69,0.00,CLR,,0.00,0.0,WeatherDisplay:10.37,2013-01-26 00:28:00,
2013-01-25 18:33:00,46.1,36.5,30.19,NNE,27,2.9,4.6,69,0.00,CLR,,0.00,0.0,WeatherDisplay:10.37,2013-01-26 00:33:00,
2013-01-25 18:38:00,46.1,36.5,30.19,NNE,27,1.7,4.6,69,0.00,CLR,,0.00,0.0,WeatherDisplay:10.37,2013-01-26 00:38:00,
2013-01-25 18:43:00,45.9,36.3,30.19,NNE,26,4.2,4.2,69,0.00,CLR,,0.00,0.0,WeatherDisplay:10.37,2013-01-26 00:43:00,
2013-01-25 18:48:00,45.7,36.5,30.19,NNE,27,4.1,6.0,70,0.00,CLR,,0.00,0.0,WeatherDisplay:10.37,2013-01-26 00:48:00,
2013-01-25 18:53:00,45.6,36.4,30.18,NNE,27,2.7,3.5,70,0.00,CLR,,0.00,0.0,WeatherDisplay:10.37,2013-01-26 00:53:00,
2013-01-25 18:58:00,45.4,36.5,30.18,NNE,27,3.3,5.8,71,0.00,CLR,,0.00,0.0,WeatherDisplay:10.37,2013-01-26 00:58:00,
2013-01-25 19:03:00,45.3,36.4,30.18,NNE,27,4.9,9.2,71,0.00,CLR,,0.00,0.0,WeatherDisplay:10.37,2013-01-26 01:03:00,
2013-01-25 19:08:00,45.4,36.5,30.18,NE,39,7.1,11.5,71,0.00,CLR,,0.00,0.0,WeatherDisplay:10.37,2013-01-26 01:08:00,
2013-01-25 19:13:00,45.4,36.5,30.18,NE,43,7.5,10.4,71,0.00,CLR,,0.00,0.0,WeatherDisplay:10.37,2013-01-26 01:13:00,
2013-01-25 19:18:00,45.2,36.4,30.18,NNE,28,5.8,6.9,71,0.00,CLR,,0.00,0.0,WeatherDisplay:10.37,2013-01-26 01:18:00,
2013-01-25 19:23:00,45.1,36.6,30.18,NE,35,6.9,11.5,72,0.00,CLR,,0.00,0.0,WeatherDisplay:10.37,2013-01-26 01:23:00,
2013-01-25 19:28:00,44.9,36.4,30.18,NE,37,7.1,11.5,72,0.00,CLR,,0.00,0.0,WeatherDisplay:10.37,2013-01-26 01:28:00,
2013-01-25 19:33:00,44.9,36.1,30.18,NE,45,7.9,8.0,71,0.00,CLR,,0.00,0.0,WeatherDisplay:10.37,2013-01-26 01:33:00,
2013-01-25 19:38:00,44.7,36.2,30.18,NE,35,5.0,10.4,72,0.00,CLR,,0.00,0.0,WeatherDisplay:10.37,2013-01-26 01:38:00,
2013-01-25 19:43:00,44.5,36.0,30.17,NE,37,6.5,8.0,72,0.00,CLR,,0.00,0.0,WeatherDisplay:10.37,2013-01-26 01:43:00,
2013-01-25 19:48:00,44.3,35.8,30.17,NE,46,7.5,11.5,72,0.00,CLR,,0.00,0.0,WeatherDisplay:10.37,2013-01-26 01:48:00,
2013-01-25 19:53:00,44.2,35.7,30.18,NE,41,4.3,8.1,72,0.00,CLR,,0.00,0.0,WeatherDisplay:10.37,2013-01-26 01:53:00,
2013-01-25 19:58:00,44.1,35.6,30.19,NE,41,4.5,8.1,72,0.00,CLR,,0.00,0.0,WeatherDisplay:10.37,2013-01-26 01:58:00,
2013-01-25 20:03:00,44.0,35.9,30.19,NE,35,5.4,6.9,73,0.00,CLR,,0.00,0.0,WeatherDisplay:10.37,2013-01-26 02:03:00,
2013-01-25 20:08:00,43.8,36.7,30.19,NNE,27,4.9,9.2,76,0.00,CLR,,0.00,0.0,WeatherDisplay:10.37,2013-01-26 02:08:00,
2013-01-25 20:13:00,43.7,35.6,30.19,NNE,27,4.2,5.8,73,0.00,CLR,,0.00,0.0,WeatherDisplay:10.37,2013-01-26 02:13:00,
2013-01-25 20:18:00,43.3,35.2,30.18,NNE,28,6.0,6.9,73,0.00,CLR,,0.00,0.0,WeatherDisplay:10.37,2013-01-26 02:18:00,
2013-01-25 20:23:00,43.3,35.2,30.18,NNE,31,3.3,5.8,73,0.00,CLR,,0.00,0.0,WeatherDisplay:10.37,2013-01-26 02:23:00,
2013-01-25 20:28:00,43.0,34.9,30.18,NNE,31,3.5,4.6,73,0.00,CLR,,0.00,0.0,WeatherDisplay:10.37,2013-01-26 02:28:00,
2013-01-25 20:33:00,42.8,35.1,30.17,NNE,32,4.8,5.8,74,0.00,CLR,,0.00,0.0,WeatherDisplay:10.37,2013-01-26 02:33:00,
2013-01-25 20:38:00,42.6,34.9,30.18,NNE,32,3.2,6.9,74,0.00,CLR,,0.00,0.0,WeatherDisplay:10.37,2013-01-26 02:38:00,
2013-01-25 20:43:00,42.4,34.7,30.18,NNE,32,3.1,4.6,74,0.00,CLR,,0.00,0.0,WeatherDisplay:10.37,2013-01-26 02:43:00,
2013-01-25 20:48:00,42.1,34.4,30.18,NNE,32,3.5,6.0,74,0.00,CLR,,0.00,0.0,WeatherDisplay:10.37,2013-01-26 02:48:00,
2013-01-25 20:53:00,41.7,34.0,30.18,NNE,32,3.3,4.6,74,0.00,CLR,,0.00,0.0,WeatherDisplay:10.37,2013-01-26 02:53:00,
2013-01-25 20:58:00,41.8,34.1,30.18,NNE,32,3.5,5.8,74,0.00,CLR,,0.00,0.0,WeatherDisplay:10.37,2013-01-26 02:58:00,
2013-01-25 21:03:00,41.7,34.0,30.19,NNE,32,0.7,4.0,74,0.00,CLR,,0.00,0.0,WeatherDisplay:10.37,2013-01-26 03:03:00,
2013-01-25 21:08:00,41.5,33.8,30.18,NNE,32,3.7,4.6,74,0.00,CLR,,0.00,0.0,WeatherDisplay:10.37,2013-01-26 03:08:00,
2013-01-25 21:13:00,41.2,33.5,30.18,NNE,32,4.3,5.8,74,0.00,CLR,,0.00,0.0,WeatherDisplay:10.37,2013-01-26 03:13:00,
2013-01-25 21:18:00,41.4,33.7,30.20,NNE,32,1.0,3.5,74,0.00,CLR,,0.00,0.0,WeatherDisplay:10.37,2013-01-26 03:18:00,
2013-01-25 21:23:00,41.5,33.8,30.20,NNE,32,1.6,3.5,74,0.00,CLR,,0.00,0.0,WeatherDisplay:10.37,2013-01-26 03:23:00,
2013-01-25 21:28:00,41.6,33.9,30.20,NNE,32,0.0,3.5,74,0.00,CLR,,0.00,0.0,WeatherDisplay:10.37,2013-01-26 03:28:00,
2013-01-25 21:33:00,41.5,33.8,30.20,NNE,32,0.0,0.0,74,0.00,CLR,,0.00,0.0,WeatherDisplay:10.37,2013-01-26 03:33:00,
2013-01-25 21:38:00,41.3,33.6,30.20,NNE,32,0.4,3.5,74,0.00,CLR,,0.00,0.0,WeatherDisplay:10.37,2013-01-26 03:38:00,
2013-01-25 21:43:00,41.2,33.5,30.20,NNE,32,0.0,0.0,74,0.00,CLR,,0.00,0.0,WeatherDisplay:10.37,2013-01-26 03:43:00,
2013-01-25 21:48:00,41.2,33.5,30.19,NNE,32,0.0,0.0,74,0.00,CLR,,0.00,0.0,WeatherDisplay:10.37,2013-01-26 03:48:00,
2013-01-25 21:53:00,41.0,33.3,30.19,NNE,32,0.0,0.0,74,0.00,CLR,,0.00,0.0,WeatherDisplay:10.37,2013-01-26 03:53:00,
2013-01-25 21:58:00,41.0,33.3,30.19,NNE,32,0.0,0.0,74,0.00,CLR,,0.00,0.0,WeatherDisplay:10.37,2013-01-26 03:58:00,
2013-01-25 22:03:00,41.0,33.0,30.19,NNE,32,0.0,0.0,73,0.00,CLR,,0.00,0.0,WeatherDisplay:10.37,2013-01-26 04:03:00,
2013-01-25 22:08:00,40.9,32.9,30.20,NNE,32,0.0,0.0,73,0.00,CLR,,0.00,0.0,WeatherDisplay:10.37,2013-01-26 04:08:00,
2013-01-25 22:13:00,41.0,32.7,30.20,NNE,32,0.0,0.0,72,0.00,CLR,,0.00,0.0,WeatherDisplay:10.37,2013-01-26 04:13:00,
2013-01-25 22:18:00,40.9,32.6,30.20,NNE,32,0.0,0.0,72,0.00,CLR,,0.00,0.0,WeatherDisplay:10.37,2013-01-26 04:18:00,
2013-01-25 22:23:00,40.8,32.5,30.20,NNE,32,0.0,0.0,72,0.00,CLR,,0.00,0.0,WeatherDisplay:10.37,2013-01-26 04:23:00,
2013-01-25 22:28:00,40.8,32.1,30.19,NNE,32,0.0,0.0,71,0.00,CLR,,0.00,0.0,WeatherDisplay:10.37,2013-01-26 04:28:00,
2013-01-25 22:33:00,40.7,32.4,30.20,NNE,32,0.0,0.0,72,0.00,CLR,,0.00,0.0,WeatherDisplay:10.37,2013-01-26 04:33:00,
2013-01-25 22:38:00,40.6,31.9,30.20,NNE,32,0.0,0.0,71,0.00,CLR,,0.00,0.0,WeatherDisplay:10.37,2013-01-26 04:38:00,
2013-01-25 22:43:00,40.4,31.4,30.20,NNE,32,0.0,0.0,70,0.00,CLR,,0.00,0.0,WeatherDisplay:10.37,2013-01-26 04:43:00,
2013-01-25 22:48:00,40.3,31.6,30.20,NNE,32,0.0,3.5,71,0.00,CLR,,0.00,0.0,WeatherDisplay:10.37,2013-01-26 04:48:00,
2013-01-25 22:53:00,40.2,31.5,30.20,NNE,32,0.0,0.0,71,0.00,CLR,,0.00,0.0,WeatherDisplay:10.37,2013-01-26 04:53:00,
2013-01-25 22:58:00,40.0,31.4,30.21,NNE,32,0.0,0.0,71,0.00,CLR,,0.00,0.0,WeatherDisplay:10.37,2013-01-26 04:58:00,
2013-01-25 23:00:00,39.9,31.3,30.21,NNE,32,0.0,0.0,71,0.00,CLR,,0.00,0.0,WeatherDisplay:10.37,2013-01-26 05:00:00,
2013-01-25 23:01:00,39.9,31.3,30.21,NNE,32,0.0,0.0,71,0.00,CLR,,0.00,0.0,WeatherDisplay:10.37,2013-01-26 05:01:00,
2013-01-25 23:06:00,39.8,31.2,30.22,NNE,32,0.0,0.0,71,0.00,CLR,,0.00,0.0,WeatherDisplay:10.37,2013-01-26 05:06:00,
2013-01-25 23:11:00,39.8,30.8,30.22,NNE,32,0.0,0.0,70,0.00,CLR,,0.00,0.0,WeatherDisplay:10.37,2013-01-26 05:11:00,
2013-01-25 23:16:00,39.5,30.2,30.23,NNE,32,0.0,0.0,69,0.00,CLR,,0.00,0.0,WeatherDisplay:10.37,2013-01-26 05:16:00,
2013-01-25 23:21:00,39.5,30.2,30.23,NNE,32,0.0,0.0,69,0.00,CLR,,0.00,0.0,WeatherDisplay:10.37,2013-01-26 05:21:00,
2013-01-25 23:26:00,39.4,30.1,30.23,NNE,32,0.0,0.0,69,0.00,CLR,,0.00,0.0,WeatherDisplay:10.37,2013-01-26 05:26:00,
2013-01-25 23:31:00,39.4,30.1,30.23,NNE,32,0.7,3.5,69,0.00,CLR,,0.00,0.0,WeatherDisplay:10.37,2013-01-26 05:31:00,
2013-01-25 23:36:00,39.4,30.1,30.23,NNE,32,0.0,0.0,69,0.00,CLR,,0.00,0.0,WeatherDisplay:10.37,2013-01-26 05:36:00,
2013-01-25 23:41:00,39.4,29.7,30.22,NNE,32,0.0,0.0,68,0.00,CLR,,0.00,0.0,WeatherDisplay:10.37,2013-01-26 05:41:00,
2013-01-25 23:46:00,39.4,28.6,30.22,NNE,32,0.0,0.0,65,0.00,CLR,,0.00,0.0,WeatherDisplay:10.37,2013-01-26 05:46:00,
2013-01-25 23:51:00,39.3,28.1,30.21,NNE,32,0.0,0.0,64,0.00,CLR,,0.00,0.0,WeatherDisplay:10.37,2013-01-26 05:51:00,
2013-01-25 23:56:00,39.2,28.0,30.21,NNE,32,0.0,0.0,64,0.00,CLR,,0.00,0.0,WeatherDisplay:10.37,2013-01-26 05:56:00,